O3B MPOWER F2

Last updated on Fri Dec 29 2023 00:03:04 GMT+0000 (Coordinated Universal Time)

1 54756U 22174B 23362.15592979 -.00000024 00000+0 00000+0 0 9991 2 54756 0.0595 13.1350 0006756 281.9302 64.8628 4.99697876 20304
UTC large
Height (km)
Speed (km/s)
/
Latitude / Longitude
Inclination (degrees)
Orbital Period (minutes)
Azimuth
Elevation
Range (km)
Doppler Factor

Next 0 passes for location: London (51.5072 / 0.1276)

Sorry there are no passes over London.